THORAD DELTA 1 DEB, 8157

Orbit data source: Space-Track

THORAD DELTA 1 DEB, 8157 is space debris in SSO originally from a launch on Fri, 15 Nov 1974 UTC launched from the Air Force Western Test Range (AFWTR). Debris objects in space refer to the collection of defunct objects orbiting the Earth. Examples of debris include non-operational satellites, rocket bodies, and fragments generated from explosions, collisions, or faulty payload assembly.

Loading next visibility...
Identifier
8157, 1974-089X
Orbit
SSO
Country
Flag of USUS
Related business
Manufacturer
Unknown
Mission
Spacecraft
Bus & Motor
Unknown
Mass
Unknown
Launch date (UTC)
1974-11-15 (51 years ago)
Launch vehicle
Unknown
Launch site
Air Force Western Test Range (AFWTR)
Object type
Payload
Rocket body
Debris
Shape & HBR
Unknown shape, 0.1 m
Radar Cross Section
Small (<0.1 m²)

Expand to show TLE details & history
Last TLE update: 17 hours ago

TLE from 17 hours ago
0 THORAD DELTA 1 DEB
1  8157U 74089X   25300.26410676  .00000027  00000-0  48961-3 0  9991
2  8157 102.1356 298.5105 0132785 264.0862 107.4715 12.47509282318800
Epoch: 2025-10-27T06:20Z
TLE epoch observation values (Epoch: 2025-10-27T06:20:18.824Z)
Latitude
12.6731°
Longitude
164.80563°
Altitude
1,509.305 km
Speed
7.096 km/s
True Right ascension
19h 43m 00s
True Declination
12° 36' 24"
Sunlit
Object was in daylight at epoch
Visualization orbit readout
Latitude
Unknown
Longitude
Unknown
Altitude
Unknown
Speed
Unknown
Apparent Right ascension
Unknown
Apparent Declination
Unknown
Sunlit
N/A
Visualization observer readout
Local Sidereal Time
19:15:51
Azimuth
Unknown
Elevation
Unknown
Doppler factor
Unknown
Orbital elements
Apogee altitude
1,576.747 km
Perigee altitude
1,368.258 km
Semi-major axis
7,850.64 km
Eccentricity
0.01328
Inclination
102.1356°
RAAN
298.5105°
Arg. of periapsis
264.0862°
True anomaly
108.91556°
Mean anomaly
107.4715°
Eccentric anomaly
108.19426°
Mean motion
3.12022 °/min
Orbital period
115.38 mins
BSTAR
0.00048961
Loading maneuver chart data...
Computing Atmospheric mass density...

Documentation

Showing up to 5 results
|